Вернуться в каталог

GALILEO 14

26B

АктивенНавигацияMEO
NORAD 41549·PAYLOAD·🇪🇺 EU

Запущен May 24, 2016 с Guiana Space Centre

Loading…

Ближайшие Пролёты (ближайшие 24 часа)

TLE

СвежийSource: CelesTrak SupGP

Эпоха: Sep 13, 2026, 23:59 UTC

1 41549C 16030A   26256.99979167  .00000000  00000+0  00000+0 0  2565
2 41549  55.0750 219.2532 0003867 334.2904  51.8414  1.70473257    10

Отслеживайте GALILEO 14 в реальном времени с AllMySat

Download on the App Store